TimeMST,TemperatureF,Dew PointF,Humidity,Sea Level PressureIn,VisibilityMPH,Wind Direction,Wind SpeedMPH,Gust SpeedMPH,PrecipitationIn,Events,Conditions,WindDirDegrees,DateUTC
12:53 AM,34.0,5.0,30,29.89,10.0,NW,8.1,-,N/A,,Clear,310,2013-01-07 07:53:00
1:53 AM,32.0,5.0,32,29.89,10.0,West,12.7,-,N/A,,Clear,270,2013-01-07 08:53:00
2:53 AM,34.0,1.9,26,29.92,10.0,NNW,8.1,-,N/A,,Clear,330,2013-01-07 09:53:00
3:53 AM,33.1,1.0,26,29.93,10.0,WNW,4.6,-,N/A,,Clear,300,2013-01-07 10:53:00
4:53 AM,28.9,3.0,33,29.98,10.0,WNW,3.5,-,N/A,,Clear,290,2013-01-07 11:53:00
5:53 AM,28.0,3.9,36,30.04,10.0,WSW,12.7,-,N/A,,Clear,250,2013-01-07 12:53:00
6:53 AM,37.9,-2.9,18,29.98,10.0,WNW,24.2,31.1,N/A,,Clear,290,2013-01-07 13:53:00
7:53 AM,36.0,-0.9,21,29.99,10.0,West,18.4,-,N/A,,Clear,280,2013-01-07 14:53:00
8:53 AM,37.9,-0.9,19,29.97,10.0,West,9.2,-,N/A,,Clear,270,2013-01-07 15:53:00
9:53 AM,37.0,3.0,24,30.01,10.0,West,12.7,-,N/A,,Clear,260,2013-01-07 16:53:00
10:53 AM,42.1,3.9,21,29.94,10.0,WSW,8.1,-,N/A,,Clear,250,2013-01-07 17:53:00
11:53 AM,48.9,-2.9,12,29.86,10.0,SSW,13.8,-,N/A,,Clear,210,2013-01-07 18:53:00
12:53 PM,48.9,-4.0,11,29.84,10.0,SSW,17.3,-,N/A,,Clear,210,2013-01-07 19:53:00
1:53 PM,46.9,-0.9,14,29.84,10.0,SSW,9.2,-,N/A,,Clear,200,2013-01-07 20:53:00
2:53 PM,44.1,3.9,19,29.85,10.0,SSW,11.5,-,N/A,,Clear,210,2013-01-07 21:53:00
3:53 PM,41.0,5.0,23,29.88,10.0,SW,10.4,-,N/A,,Clear,220,2013-01-07 22:53:00
4:53 PM,35.1,8.1,33,29.93,10.0,SSW,5.8,-,N/A,,Clear,200,2013-01-07 23:53:00
5:53 PM,30.9,9.0,40,29.94,10.0,SW,9.2,-,N/A,,Clear,230,2013-01-08 00:53:00
6:53 PM,28.9,10.0,45,29.89,10.0,SW,10.4,-,N/A,,Clear,230,2013-01-08 01:53:00
7:53 PM,30.9,10.0,42,29.87,10.0,SW,9.2,-,N/A,,Clear,230,2013-01-08 02:53:00
8:53 PM,28.0,10.9,49,29.85,10.0,WSW,11.5,-,N/A,,Clear,240,2013-01-08 03:53:00
9:53 PM,28.0,12.9,53,29.85,10.0,West,12.7,-,N/A,,Mostly Cloudy,270,2013-01-08 04:53:00
10:53 PM,34.0,7.0,32,29.77,10.0,SSW,8.1,-,N/A,,Partly Cloudy,210,2013-01-08 05:53:00
11:53 PM,37.9,6.1,27,29.70,10.0,West,16.1,24.2,N/A,,Clear,260,2013-01-08 06:53:00